owner,sensor,date,latitude,longitude,vertical_datum,wind_speed,wind_to_direction,wind_speed_of_gust,qcFlag 
TABS,ioos:station:wmo:42047:1,2019-01-01T00:00:00Z,27.8966,-93.5973,4.0,3.354400095,25.80088192,4.16,'11111222,11111222,11111222' 
TABS,ioos:station:wmo:42047:1,2019-01-01T00:30:00Z,27.8966,-93.5973,4.0,2.625280937,25.97915355,3.85,'11111222,11111222,11111222' 
TABS,ioos:station:wmo:42047:1,2019-01-01T01:00:00Z,27.8966,-93.5973,4.0,2.755449147,41.61596339,3.52,'11111222,11111222,11111222' 
TABS,ioos:station:wmo:42047:1,2019-01-01T01:30:00Z,27.8966,-93.5973,4.0,3.178741889,34.48966552,3.95,'11111222,11111222,11111222' 
TABS,ioos:station:wmo:42047:1,2019-01-01T02:00:00Z,27.8966,-93.5973,4.0,3.69112449,44.78016184,4.62,'11111222,11111222,11111222' 
TABS,ioos:station:wmo:42047:1,2019-01-01T02:30:00Z,27.8966,-93.5973,4.0,3.981017458,44.89791595,5.16,'11111222,11111222,11111222' 
TABS,ioos:station:wmo:42047:1,2019-01-01T03:00:00Z,27.8966,-93.5973,4.0,3.285361472,42.0387551,4.3,'11111222,11111222,11111222' 
TABS,ioos:station:wmo:42047:1,2019-01-01T03:30:00Z,27.8966,-93.5973,4.0,3.890822535,26.89406029,4.62,'11111222,11111222,11111222' 
TABS,ioos:station:wmo:42047:1,2019-01-01T04:00:00Z,27.8966,-93.5973,4.0,3.96868996,52.06137392,5.46,'11111222,11111222,11111222' 
TABS,ioos:station:wmo:42047:1,2019-01-01T04:30:00Z,27.8966,-93.5973,4.0,3.140063694,46.03192659,4.09,'11111222,11111222,11111222' 
TABS,ioos:station:wmo:42047:1,2019-01-01T05:00:00Z,27.8966,-93.5973,4.0,3.671198714,21.74318586,4.48,'11111222,11111222,11111222' 
TABS,ioos:station:wmo:42047:1,2019-01-01T05:30:00Z,27.8966,-93.5973,4.0,4.229385298,23.10938511,5.1,'11111222,11111222,11111222' 
TABS,ioos:station:wmo:42047:1,2019-01-01T06:00:00Z,27.8966,-93.5973,4.0,3.801315562,26.5647786,4.71,'11111222,11111222,11111222' 
TABS,ioos:station:wmo:42047:1,2019-01-01T06:30:00Z,27.8966,-93.5973,4.0,4.08050242,45.89330476,5.22,'11111222,11111222,11111222' 
TABS,ioos:station:wmo:42047:1,2019-01-01T07:00:00Z,27.8966,-93.5973,4.0,4.18917653,57.67532052,4.98,'11111222,11111222,11111222' 
TABS,ioos:station:wmo:42047:1,2019-01-01T07:30:00Z,27.8966,-93.5973,4.0,4.370286032,64.66593425,5.15,'11111222,11111222,11111222' 
TABS,ioos:station:wmo:42047:1,2019-01-01T08:00:00Z,27.8966,-93.5973,4.0,4.150469853,20.00643749,4.86,'11111222,11111222,11111222' 
TABS,ioos:station:wmo:42047:1,2019-01-01T08:30:00Z,27.8966,-93.5973,4.0,4.316167281,22.7625596,5.08,'11111222,11111222,11111222' 
TABS,ioos:station:wmo:42047:1,2019-01-01T09:00:00Z,27.8966,-93.5973,4.0,4.700521248,13.5334197,5.41,'11111222,11111222,11111222' 
TABS,ioos:station:wmo:42047:1,2019-01-01T09:30:00Z,27.8966,-93.5973,4.0,5.068224541,30.20733138,5.93,'11111222,11111222,11111222' 
TABS,ioos:station:wmo:42047:1,2019-01-01T10:00:00Z,27.8966,-93.5973,4.0,6.104506532,26.77465182,7.13,'11111222,11111222,11111222' 
TABS,ioos:station:wmo:42047:1,2019-01-01T10:30:00Z,27.8966,-93.5973,4.0,6.584010936,18.04942775,7.78,'11111222,11111222,11111222' 
TABS,ioos:station:wmo:42047:1,2019-01-01T11:00:00Z,27.8966,-93.5973,4.0,7.05013475,25.18355223,8.27,'11111222,11111222,11111222' 
TABS,ioos:station:wmo:42047:1,2019-01-01T11:30:00Z,27.8966,-93.5973,4.0,7.495491979,20.94944202,8.79,'11111222,11111222,11111222' 
TABS,ioos:station:wmo:42047:1,2019-01-01T12:00:00Z,27.8966,-93.5973,4.0,7.277698812,38.696393,8.55,'11111222,11111222,11111222' 
TABS,ioos:station:wmo:42047:1,2019-01-01T12:30:00Z,27.8966,-93.5973,4.0,7.283419527,44.55467854,8.35,'11111222,11111222,11111222' 
TABS,ioos:station:wmo:42047:1,2019-01-01T13:00:00Z,27.8966,-93.5973,4.0,6.476866526,48.75549759,7.52,'11111222,11111222,11111222' 
TABS,ioos:station:wmo:42047:1,2019-01-01T13:30:00Z,27.8966,-93.5973,4.0,6.854035308,52.94586047,7.65,'11111222,11111222,11111222' 
TABS,ioos:station:wmo:42047:1,2019-01-01T14:00:00Z,27.8966,-93.5973,4.0,6.630211158,42.86049999,7.67,'11111222,11111222,11111222' 
TABS,ioos:station:wmo:42047:1,2019-01-01T14:30:00Z,27.8966,-93.5973,4.0,7.340640299,44.11658438,8.64,'11111222,11111222,11111222' 
TABS,ioos:station:wmo:42047:1,2019-01-01T15:00:00Z,27.8966,-93.5973,4.0,7.730103492,43.89898849,9.0,'11111222,11111222,11111222' 
TABS,ioos:station:wmo:42047:1,2019-01-01T15:30:00Z,27.8966,-93.5973,4.0,7.933952357,38.14070273,9.25,'11111222,11111222,11111222' 
TABS,ioos:station:wmo:42047:1,2019-01-01T16:00:00Z,27.8966,-93.5973,4.0,8.397434132,46.78506989,9.44,'11111222,11111222,11111222' 
TABS,ioos:station:wmo:42047:1,2019-01-01T16:30:00Z,27.8966,-93.5973,4.0,7.946099672,47.09058241,9.46,'11111222,11111222,11111222' 
TABS,ioos:station:wmo:42047:1,2019-01-01T17:00:00Z,27.8966,-93.5973,4.0,8.08282129,55.48383519,9.33,'11111222,11111222,11111222' 
TABS,ioos:station:wmo:42047:1,2019-01-01T17:30:00Z,27.8966,-93.5973,4.0,7.190340743,52.57196954,8.29,'11111222,11111222,11111222' 
TABS,ioos:station:wmo:42047:1,2019-01-01T18:00:00Z,27.8966,-93.5973,4.0,7.541120606,35.88184288,8.55,'11111222,11111222,11111222' 
TABS,ioos:station:wmo:42047:1,2019-01-01T18:30:00Z,27.8966,-93.5973,4.0,7.260688673,40.75505544,8.33,'11111222,11111222,11111222' 
TABS,ioos:station:wmo:42047:1,2019-01-01T19:00:00Z,27.8966,-93.5973,4.0,7.411140263,44.23432999,8.72,'11111222,11111222,11111222' 
TABS,ioos:station:wmo:42047:1,2019-01-01T19:30:00Z,27.8966,-93.5973,4.0,7.75391514,50.23194495,9.1,'11111222,11111222,11111222' 
TABS,ioos:station:wmo:42047:1,2019-01-01T20:00:00Z,27.8966,-93.5973,4.0,7.470053547,40.38468611,8.8,'11111222,11111222,11111222' 
TABS,ioos:station:wmo:42047:1,2019-01-01T20:30:00Z,27.8966,-93.5973,4.0,7.282774197,50.01278634,8.7,'11111222,11111222,11111222' 
TABS,ioos:station:wmo:42047:1,2019-01-01T21:00:00Z,27.8966,-93.5973,4.0,7.109803092,43.23291614,8.09,'11111222,11111222,11111222' 
TABS,ioos:station:wmo:42047:1,2019-01-01T21:30:00Z,27.8966,-93.5973,4.0,7.361202347,41.41992516,8.64,'11111222,11111222,11111222' 
TABS,ioos:station:wmo:42047:1,2019-01-01T22:00:00Z,27.8966,-93.5973,4.0,7.393896131,47.02748687,8.7,'11111222,11111222,11111222' 
TABS,ioos:station:wmo:42047:1,2019-01-01T22:30:00Z,27.8966,-93.5973,4.0,7.937808262,48.88165212,8.92,'11111222,11111222,11111222' 
TABS,ioos:station:wmo:42047:1,2019-01-01T23:00:00Z,27.8966,-93.5973,4.0,8.648236815,37.29361281,9.71,'11111222,11111222,11111222' 
TABS,ioos:station:wmo:42047:1,2019-01-01T23:30:00Z,27.8966,-93.5973,4.0,8.393431956,45.24102933,9.56,'11111222,11111222,11111222' 
TABS,ioos:station:wmo:42047:1,2019-01-02T00:00:00Z,27.8966,-93.5973,4.0,8.443488615,42.55182192,9.6,'11111222,11111222,11111222' 
TABS,ioos:station:wmo:42047:1,2019-01-02T00:30:00Z,27.8966,-93.5973,4.0,8.136055555,31.32579375,9.52,'11111222,11111222,11111222' 
TABS,ioos:station:wmo:42047:1,2019-01-02T01:00:00Z,27.8966,-93.5973,4.0,8.468529979,39.44143556,9.47,'11111222,11111222,11111222' 
TABS,ioos:station:wmo:42047:1,2019-01-02T01:30:00Z,27.8966,-93.5973,4.0,8.126579846,49.94134108,9.34,'11111222,11111222,11111222' 
TABS,ioos:station:wmo:42047:1,2019-01-02T02:00:00Z,27.8966,-93.5973,4.0,8.258383619,50.25628237,9.35,'11111222,11111222,11111222' 
TABS,ioos:station:wmo:42047:1,2019-01-02T02:30:00Z,27.8966,-93.5973,4.0,7.663034647,50.34727202,8.84,'11111222,11111222,11111222' 
TABS,ioos:station:wmo:42047:1,2019-01-02T03:00:00Z,27.8966,-93.5973,4.0,7.954979573,44.84689629,8.94,'11111222,11111222,11111222' 
TABS,ioos:station:wmo:42047:1,2019-01-02T03:30:00Z,27.8966,-93.5973,4.0,7.727315187,47.20227732,8.9,'11111222,11111222,11111222' 
TABS,ioos:station:wmo:42047:1,2019-01-02T04:00:00Z,27.8966,-93.5973,4.0,8.20810575,32.66363954,9.18,'11111222,11111222,11111222' 
TABS,ioos:station:wmo:42047:1,2019-01-02T04:30:00Z,27.8966,-93.5973,4.0,8.474196127,39.06076042,9.6,'11111222,11111222,11111222' 
TABS,ioos:station:wmo:42047:1,2019-01-02T05:00:00Z,27.8966,-93.5973,4.0,8.274357981,44.02036695,9.3,'11111222,11111222,11111222' 
TABS,ioos:station:wmo:42047:1,2019-01-02T05:30:00Z,27.8966,-93.5973,4.0,8.022468448,48.84062436,8.95,'11111222,11111222,11111222' 
TABS,ioos:station:wmo:42047:1,2019-01-02T06:00:00Z,27.8966,-93.5973,4.0,7.080826223,56.57889809,8.33,'11111222,11111222,11111222' 
TABS,ioos:station:wmo:42047:1,2019-01-02T06:30:00Z,27.8966,-93.5973,4.0,6.506650444,53.93991953,7.39,'11111222,11111222,11111222' 
TABS,ioos:station:wmo:42047:1,2019-01-02T07:00:00Z,27.8966,-93.5973,4.0,6.65230787,53.6810016,7.55,'11111222,11111222,11111222' 
TABS,ioos:station:wmo:42047:1,2019-01-02T07:30:00Z,27.8966,-93.5973,4.0,7.07157691,45.68719906,8.21,'11111222,11111222,11111222' 
TABS,ioos:station:wmo:42047:1,2019-01-02T08:00:00Z,27.8966,-93.5973,4.0,6.961163696,46.74596185,8.06,'11111222,11111222,11111222' 
TABS,ioos:station:wmo:42047:1,2019-01-02T08:30:00Z,27.8966,-93.5973,4.0,7.259889806,42.87859288,8.44,'11111222,11111222,11111222' 
TABS,ioos:station:wmo:42047:1,2019-01-02T09:00:00Z,27.8966,-93.5973,4.0,7.236255938,61.34495235,8.35,'11111222,11111222,11111222' 
TABS,ioos:station:wmo:42047:1,2019-01-02T09:30:00Z,27.8966,-93.5973,4.0,4.89834666,59.71795376,6.55,'11111222,11111222,11111222' 
TABS,ioos:station:wmo:42047:1,2019-01-02T10:00:00Z,27.8966,-93.5973,4.0,3.75,53.12976765,7.24,'11111222,11111222,11111222' 
TABS,ioos:station:wmo:42047:1,2019-01-02T10:30:00Z,27.8966,-93.5973,4.0,0.930053762,90.61647939,1.63,'11111222,11111222,11111222' 
TABS,ioos:station:wmo:42047:1,2019-01-02T11:00:00Z,27.8966,-93.5973,4.0,1.528953891,189.0312611,2.05,'11111222,11111222,11111222' 
TABS,ioos:station:wmo:42047:1,2019-01-02T11:30:00Z,27.8966,-93.5973,4.0,1.341827113,242.4801719,2.11,'11111222,11111222,11111222' 
TABS,ioos:station:wmo:42047:1,2019-01-02T12:00:00Z,27.8966,-93.5973,4.0,2.97038718,226.0913189,3.89,'11111222,11111222,11111222' 
TABS,ioos:station:wmo:42047:1,2019-01-02T12:30:00Z,27.8966,-93.5973,4.0,1.450965196,227.5139096,1.77,'11111222,11111222,11111222' 
TABS,ioos:station:wmo:42047:1,2019-01-02T13:00:00Z,27.8966,-93.5973,4.0,0.49244289,293.9624329,1.04,'11111222,11111222,11111222' 
TABS,ioos:station:wmo:42047:1,2019-01-02T13:30:00Z,27.8966,-93.5973,4.0,1.801776901,87.45478065,2.27,'11111222,11111222,11111222' 
TABS,ioos:station:wmo:42047:1,2019-01-02T14:00:00Z,27.8966,-93.5973,4.0,2.286941189,81.19629403,3.15,'11111222,11111222,11111222' 
TABS,ioos:station:wmo:42047:1,2019-01-02T14:30:00Z,27.8966,-93.5973,4.0,2.874804341,72.38402718,3.59,'11111222,11111222,11111222' 
TABS,ioos:station:wmo:42047:1,2019-01-02T15:00:00Z,27.8966,-93.5973,4.0,1.508011936,53.35773321,2.16,'11111222,11111222,11111222' 
TABS,ioos:station:wmo:42047:1,2019-01-02T15:30:00Z,27.8966,-93.5973,4.0,3.072621031,152.6846664,5.5,'11111222,11111222,11111222' 
TABS,ioos:station:wmo:42047:1,2019-01-02T16:00:00Z,27.8966,-93.5973,4.0,6.42435989,148.8835752,7.23,'11111222,11111222,11111222' 
TABS,ioos:station:wmo:42047:1,2019-01-02T16:30:00Z,27.8966,-93.5973,4.0,6.903289071,146.1030467,7.91,'11111222,11111222,11111222' 
TABS,ioos:station:wmo:42047:1,2019-01-02T17:00:00Z,27.8966,-93.5973,4.0,7.828952676,148.8482609,9.49,'11111222,11111222,11111222' 
TABS,ioos:station:wmo:42047:1,2019-01-02T17:30:00Z,27.8966,-93.5973,4.0,7.783932168,156.531049,9.82,'11111222,11111222,11111222' 
TABS,ioos:station:wmo:42047:1,2019-01-02T18:00:00Z,27.8966,-93.5973,4.0,7.760315715,168.704784,9.05,'11111222,11111222,11111222' 
TABS,ioos:station:wmo:42047:1,2019-01-02T18:30:00Z,27.8966,-93.5973,4.0,7.421334112,169.2051035,8.49,'11111222,11111222,11111222' 
TABS,ioos:station:wmo:42047:1,2019-01-02T19:00:00Z,27.8966,-93.5973,4.0,8.25378701,165.4757443,9.47,'11111222,11111222,11111222' 
TABS,ioos:station:wmo:42047:1,2019-01-02T19:30:00Z,27.8966,-93.5973,4.0,7.168047154,168.7373323,8.81,'11111222,11111222,11111222' 
TABS,ioos:station:wmo:42047:1,2019-01-02T20:00:00Z,27.8966,-93.5973,4.0,7.522134006,167.7192848,9.36,'11111222,11111222,11111222' 
TABS,ioos:station:wmo:42047:1,2019-01-02T20:30:00Z,27.8966,-93.5973,4.0,7.665507159,164.8762385,8.75,'11111222,11111222,11111222' 
TABS,ioos:station:wmo:42047:1,2019-01-02T21:00:00Z,27.8966,-93.5973,4.0,7.469946452,164.5500391,8.55,'11111222,11111222,11111222' 
TABS,ioos:station:wmo:42047:1,2019-01-02T21:30:00Z,27.8966,-93.5973,4.0,7.673187082,160.4318207,9.41,'11111222,11111222,11111222' 
TABS,ioos:station:wmo:42047:1,2019-01-02T22:00:00Z,27.8966,-93.5973,4.0,6.588019429,163.6008925,7.87,'11111222,11111222,11111222' 
TABS,ioos:station:wmo:42047:1,2019-01-02T22:30:00Z,27.8966,-93.5973,4.0,6.019975083,163.1004485,7.17,'11111222,11111222,11111222' 
TABS,ioos:station:wmo:42047:1,2019-01-02T23:00:00Z,27.8966,-93.5973,4.0,6.018388489,164.8787224,7.09,'11111222,11111222,11111222' 
TABS,ioos:station:wmo:42047:1,2019-01-02T23:30:00Z,27.8966,-93.5973,4.0,5.303055723,178.0550682,6.06,'11111222,11111222,11111222' 
TABS,ioos:station:wmo:42047:1,2019-01-03T00:00:00Z,27.8966,-93.5973,4.0,5.68860264,164.8157973,6.36,'11111222,11111222,11111222' 
TABS,ioos:station:wmo:42047:1,2019-01-03T00:30:00Z,27.8966,-93.5973,4.0,5.168413683,167.711916,5.93,'11111222,11111222,11111222' 
TABS,ioos:station:wmo:42047:1,2019-01-03T01:00:00Z,27.8966,-93.5973,4.0,5.572396253,173.8189985,6.52,'11111222,11111222,11111222' 
TABS,ioos:station:wmo:42047:1,2019-01-03T01:30:00Z,27.8966,-93.5973,4.0,6.102335618,165.576873,7.08,'11111222,11111222,11111222' 
TABS,ioos:station:wmo:42047:1,2019-01-03T02:00:00Z,27.8966,-93.5973,4.0,5.412476328,171.2862617,6.06,'11111222,11111222,11111222' 
TABS,ioos:station:wmo:42047:1,2019-01-03T02:30:00Z,27.8966,-93.5973,4.0,4.805538471,172.1061879,5.59,'11111222,11111222,11111222' 
TABS,ioos:station:wmo:42047:1,2019-01-03T03:00:00Z,27.8966,-93.5973,4.0,4.521338297,175.9416891,5.08,'11111222,11111222,11111222' 
TABS,ioos:station:wmo:42047:1,2019-01-03T03:30:00Z,27.8966,-93.5973,4.0,4.298953361,168.3243701,4.97,'11111222,11111222,11111222' 
TABS,ioos:station:wmo:42047:1,2019-01-03T04:00:00Z,27.8966,-93.5973,4.0,4.523052067,167.7462292,4.93,'11111222,11111222,11111222' 
TABS,ioos:station:wmo:42047:1,2019-01-03T04:30:00Z,27.8966,-93.5973,4.0,4.878401378,159.8566029,5.95,'11111222,11111222,11111222' 
TABS,ioos:station:wmo:42047:1,2019-01-03T05:00:00Z,27.8966,-93.5973,4.0,5.184293587,164.6772761,6.16,'11111222,11111222,11111222' 
TABS,ioos:station:wmo:42047:1,2019-01-03T05:30:00Z,27.8966,-93.5973,4.0,4.609772229,167.471432,5.35,'11111222,11111222,11111222' 
TABS,ioos:station:wmo:42047:1,2019-01-03T06:00:00Z,27.8966,-93.5973,4.0,4.914804167,163.8146535,5.5,'11111222,11111222,11111222' 
TABS,ioos:station:wmo:42047:1,2019-01-03T06:30:00Z,27.8966,-93.5973,4.0,4.639967672,162.697791,5.39,'11111222,11111222,11111222' 
TABS,ioos:station:wmo:42047:1,2019-01-03T07:00:00Z,27.8966,-93.5973,4.0,4.57507377,153.0991804,5.27,'11111222,11111222,11111222' 
TABS,ioos:station:wmo:42047:1,2019-01-03T07:30:00Z,27.8966,-93.5973,4.0,4.522488253,159.281105,5.61,'11111222,11111222,11111222' 
TABS,ioos:station:wmo:42047:1,2019-01-03T08:00:00Z,27.8966,-93.5973,4.0,4.329480338,154.2638197,5.12,'11111222,11111222,11111222' 
TABS,ioos:station:wmo:42047:1,2019-01-03T08:30:00Z,27.8966,-93.5973,4.0,3.334441482,155.7411827,4.21,'11111222,11111222,11111222' 
TABS,ioos:station:wmo:42047:1,2019-01-03T09:00:00Z,27.8966,-93.5973,4.0,5.222690877,160.0733872,5.92,'11111222,11111222,11111222' 
TABS,ioos:station:wmo:42047:1,2019-01-03T09:30:00Z,27.8966,-93.5973,4.0,4.853720223,165.0764321,6.09,'11111222,11111222,11111222' 
TABS,ioos:station:wmo:42047:1,2019-01-03T10:00:00Z,27.8966,-93.5973,4.0,2.316570741,206.6758087,4.16,'11111222,11111222,11111222' 
TABS,ioos:station:wmo:42047:1,2019-01-03T10:30:00Z,27.8966,-93.5973,4.0,3.340089819,162.7587914,4.34,'11111222,11111222,11111222' 
TABS,ioos:station:wmo:42047:1,2019-01-03T11:00:00Z,27.8966,-93.5973,4.0,4.593702211,165.6312411,5.67,'11111222,11111222,11111222' 
TABS,ioos:station:wmo:42047:1,2019-01-03T11:30:00Z,27.8966,-93.5973,4.0,4.875705077,166.9615844,6.0,'11111222,11111222,11111222' 
TABS,ioos:station:wmo:42047:1,2019-01-03T12:00:00Z,27.8966,-93.5973,4.0,6.080592076,167.6553989,7.6,'11111222,11111222,11111222' 
TABS,ioos:station:wmo:42047:1,2019-01-03T12:30:00Z,27.8966,-93.5973,4.0,7.055395099,166.1412632,8.75,'11111222,11111222,11111222' 
TABS,ioos:station:wmo:42047:1,2019-01-03T13:00:00Z,27.8966,-93.5973,4.0,6.895288246,177.7561012,8.36,'11111222,11111222,11111222' 
TABS,ioos:station:wmo:42047:1,2019-01-03T13:30:00Z,27.8966,-93.5973,4.0,7.291179603,164.324705,10.95,'11111222,11111222,11111222' 
TABS,ioos:station:wmo:42047:1,2019-01-03T14:00:00Z,27.8966,-93.5973,4.0,8.505557007,168.6770935,12.26,'11111222,11111222,11111222' 
TABS,ioos:station:wmo:42047:1,2019-01-03T14:30:00Z,27.8966,-93.5973,4.0,8.265815144,177.8508984,10.05,'11111222,11111222,11111222' 
TABS,ioos:station:wmo:42047:1,2019-01-03T15:00:00Z,27.8966,-93.5973,4.0,8.110302091,179.5056857,9.58,'11111222,11111222,11111222' 
TABS,ioos:station:wmo:42047:1,2019-01-03T15:30:00Z,27.8966,-93.5973,4.0,8.432615253,178.5732119,9.95,'11111222,11111222,11111222' 
TABS,ioos:station:wmo:42047:1,2019-01-03T16:00:00Z,27.8966,-93.5973,4.0,8.402440122,195.673939,10.91,'11111222,11111222,11111222' 
TABS,ioos:station:wmo:42047:1,2019-01-03T16:30:00Z,27.8966,-93.5973,4.0,8.027035567,191.3521118,9.33,'11111222,11111222,11111222' 
TABS,ioos:station:wmo:42047:1,2019-01-03T17:00:00Z,27.8966,-93.5973,4.0,8.289004765,186.2335211,9.41,'11111222,11111222,11111222' 
TABS,ioos:station:wmo:42047:1,2019-01-03T17:30:00Z,27.8966,-93.5973,4.0,7.440026882,202.7740427,9.22,'11111222,11111222,11111222' 
TABS,ioos:station:wmo:42047:1,2019-01-03T18:00:00Z,27.8966,-93.5973,4.0,9.888665228,251.1803196,11.27,'11111222,11111222,11111222' 
TABS,ioos:station:wmo:42047:1,2019-01-03T18:30:00Z,27.8966,-93.5973,4.0,11.3258024,262.5424371,13.87,'11111222,11111222,11111222' 
TABS,ioos:station:wmo:42047:1,2019-01-03T19:00:00Z,27.8966,-93.5973,4.0,11.23451824,261.8122171,13.89,'11111222,11111222,11111222' 
TABS,ioos:station:wmo:42047:1,2019-01-03T19:30:00Z,27.8966,-93.5973,4.0,10.68206441,268.8735454,12.52,'11111222,11111222,11111222' 
TABS,ioos:station:wmo:42047:1,2019-01-03T20:00:00Z,27.8966,-93.5973,4.0,10.43812244,276.0492155,11.97,'11111222,11111222,11111222' 
TABS,ioos:station:wmo:42047:1,2019-01-03T20:30:00Z,27.8966,-93.5973,4.0,10.97329486,272.8206797,12.87,'11111222,11111222,11111222' 
TABS,ioos:station:wmo:42047:1,2019-01-03T21:00:00Z,27.8966,-93.5973,4.0,9.806416267,279.5679583,12.0,'11111222,11111222,11111222' 
TABS,ioos:station:wmo:42047:1,2019-01-03T21:30:00Z,27.8966,-93.5973,4.0,10.39825466,279.353597,12.21,'11111222,11111222,11111222' 
TABS,ioos:station:wmo:42047:1,2019-01-03T22:00:00Z,27.8966,-93.5973,4.0,11.267462,278.6262928,13.39,'11111222,11111222,11111222' 
TABS,ioos:station:wmo:42047:1,2019-01-03T22:30:00Z,27.8966,-93.5973,4.0,10.42689791,282.2367299,12.25,'11111222,11111222,11111222' 
TABS,ioos:station:wmo:42047:1,2019-01-03T23:00:00Z,27.8966,-93.5973,4.0,10.1772344,284.5687335,12.49,'11111222,11111222,11111222' 
TABS,ioos:station:wmo:42047:1,2019-01-03T23:30:00Z,27.8966,-93.5973,4.0,10.38262009,285.1873234,12.65,'11111222,11111222,11111222' 
TABS,ioos:station:wmo:42047:1,2019-01-04T00:00:00Z,27.8966,-93.5973,4.0,9.784298646,284.5617137,11.56,'11111222,11111222,11111222' 
TABS,ioos:station:wmo:42047:1,2019-01-04T00:30:00Z,27.8966,-93.5973,4.0,9.462821989,286.1366483,11.2,'11111222,11111222,11111222' 
TABS,ioos:station:wmo:42047:1,2019-01-04T01:00:00Z,27.8966,-93.5973,4.0,9.444342222,284.0950659,11.48,'11111222,11111222,11111222' 
TABS,ioos:station:wmo:42047:1,2019-01-04T01:30:00Z,27.8966,-93.5973,4.0,9.435645182,286.4374768,11.36,'11111222,11111222,11111222' 
TABS,ioos:station:wmo:42047:1,2019-01-04T02:00:00Z,27.8966,-93.5973,4.0,9.990160159,284.3144102,11.58,'11111222,11111222,11111222' 
TABS,ioos:station:wmo:42047:1,2019-01-04T02:30:00Z,27.8966,-93.5973,4.0,10.08428976,290.429649,12.19,'11111222,11111222,11111222' 
TABS,ioos:station:wmo:42047:1,2019-01-04T03:00:00Z,27.8966,-93.5973,4.0,9.935295667,286.00873,13.17,'11111222,11111222,11111222' 
TABS,ioos:station:wmo:42047:1,2019-01-04T03:30:00Z,27.8966,-93.5973,4.0,10.37365895,282.6965193,12.24,'11111222,11111222,11111222' 
TABS,ioos:station:wmo:42047:1,2019-01-04T04:00:00Z,27.8966,-93.5973,4.0,11.03250651,289.6502847,12.94,'11111222,11111222,11111222' 
TABS,ioos:station:wmo:42047:1,2019-01-04T04:30:00Z,27.8966,-93.5973,4.0,11.90716171,292.2570691,13.96,'11111222,11111222,11111222' 
TABS,ioos:station:wmo:42047:1,2019-01-04T05:00:00Z,27.8966,-93.5973,4.0,12.53485142,300.8617765,15.45,'11111222,11111222,11111222' 
TABS,ioos:station:wmo:42047:1,2019-01-04T05:30:00Z,27.8966,-93.5973,4.0,12.25023265,305.3636096,14.08,'11111222,11111222,11111222' 
TABS,ioos:station:wmo:42047:1,2019-01-04T06:00:00Z,27.8966,-93.5973,4.0,11.63118653,297.9970819,13.91,'11111222,11111222,11111222' 
TABS,ioos:station:wmo:42047:1,2019-01-04T06:30:00Z,27.8966,-93.5973,4.0,10.21007835,301.6662496,12.18,'11111222,11111222,11111222' 
TABS,ioos:station:wmo:42047:1,2019-01-04T07:00:00Z,27.8966,-93.5973,4.0,10.42896447,299.4654227,12.3,'11111222,11111222,11111222' 
TABS,ioos:station:wmo:42047:1,2019-01-04T07:30:00Z,27.8966,-93.5973,4.0,11.28292958,300.8156337,13.99,'11111222,11111222,11111222' 
TABS,ioos:station:wmo:42047:1,2019-01-04T08:00:00Z,27.8966,-93.5973,4.0,10.73514788,292.0491326,12.77,'11111222,11111222,11111222' 
TABS,ioos:station:wmo:42047:1,2019-01-04T08:30:00Z,27.8966,-93.5973,4.0,10.3983893,293.5819968,12.26,'11111222,11111222,11111222' 
TABS,ioos:station:wmo:42047:1,2019-01-04T09:00:00Z,27.8966,-93.5973,4.0,10.10380126,298.4927241,11.74,'11111222,11111222,11111222' 
TABS,ioos:station:wmo:42047:1,2019-01-04T09:30:00Z,27.8966,-93.5973,4.0,8.705791176,293.5614903,10.3,'11111222,11111222,11111222' 
TABS,ioos:station:wmo:42047:1,2019-01-04T10:00:00Z,27.8966,-93.5973,4.0,7.646345532,290.7577107,9.24,'11111222,11111222,11111222' 
TABS,ioos:station:wmo:42047:1,2019-01-04T10:30:00Z,27.8966,-93.5973,4.0,6.010033278,284.0593324,7.83,'11111222,11111222,11111222' 
TABS,ioos:station:wmo:42047:1,2019-01-04T11:00:00Z,27.8966,-93.5973,4.0,5.854921007,272.3492732,7.75,'11111222,11111222,11111222' 
TABS,ioos:station:wmo:42047:1,2019-01-04T11:30:00Z,27.8966,-93.5973,4.0,6.684676507,272.1432978,8.15,'11111222,11111222,11111222' 
TABS,ioos:station:wmo:42047:1,2019-01-04T12:00:00Z,27.8966,-93.5973,4.0,6.963476143,268.1895336,8.66,'11111222,11111222,11111222' 
TABS,ioos:station:wmo:42047:1,2019-01-04T12:30:00Z,27.8966,-93.5973,4.0,7.409750333,267.0603733,9.64,'11111222,11111222,11111222' 
TABS,ioos:station:wmo:42047:1,2019-01-04T13:00:00Z,27.8966,-93.5973,4.0,8.243937166,264.0819535,9.94,'11111222,11111222,11111222' 
TABS,ioos:station:wmo:42047:1,2019-01-04T13:30:00Z,27.8966,-93.5973,4.0,8.542891782,258.4533365,10.52,'11111222,11111222,11111222' 
TABS,ioos:station:wmo:42047:1,2019-01-04T14:00:00Z,27.8966,-93.5973,4.0,9.660998913,257.445491,11.65,'11111222,11111222,11111222' 
TABS,ioos:station:wmo:42047:1,2019-01-04T14:30:00Z,27.8966,-93.5973,4.0,9.415657173,263.2297442,11.45,'11111222,11111222,11111222' 
TABS,ioos:station:wmo:42047:1,2019-01-04T15:00:00Z,27.8966,-93.5973,4.0,10.0800496,267.4413209,12.54,'11111222,11111222,11111222' 
TABS,ioos:station:wmo:42047:1,2019-01-04T15:30:00Z,27.8966,-93.5973,4.0,10.6400188,269.8923015,12.82,'11111222,11111222,11111222' 
TABS,ioos:station:wmo:42047:1,2019-01-04T16:00:00Z,27.8966,-93.5973,4.0,10.62809955,266.655707,12.66,'11111222,11111222,11111222' 
TABS,ioos:station:wmo:42047:1,2019-01-04T16:30:00Z,27.8966,-93.5973,4.0,10.89877975,264.5771253,13.36,'11111222,11111222,11111222' 
TABS,ioos:station:wmo:42047:1,2019-01-04T17:00:00Z,27.8966,-93.5973,4.0,11.72245708,271.1731257,13.24,'11111222,11111222,11111222' 
TABS,ioos:station:wmo:42047:1,2019-01-04T17:30:00Z,27.8966,-93.5973,4.0,12.10811711,265.4525043,14.24,'11111222,11111222,11111222' 
TABS,ioos:station:wmo:42047:1,2019-01-04T18:00:00Z,27.8966,-93.5973,4.0,11.44318575,271.3520064,13.23,'11111222,11111222,11111222' 
TABS,ioos:station:wmo:42047:1,2019-01-04T18:30:00Z,27.8966,-93.5973,4.0,10.52038497,278.3072302,12.45,'11111222,11111222,11111222' 